DECAYED

CZ-4 DEB, 26441 (Decayed)

Orbit data source: Space-Track

CZ-4 DEB, 26441 was space debris in SSO originally from a launch on Thu, 14 Oct 1999 UTC launched from the Taiyaun Space Center, China (TSC). Debris objects in space refer to the collection of defunct objects orbiting the Earth. Examples of debris include non-operational satellites, rocket bodies, and fragments generated from explosions, collisions, or faulty payload assembly.

Not visible in the next 10 days
Identifier
26441, 1999-057KN
Orbit
Decayed
Country
Flag of CNCN / PRC
Related business
Manufacturer
Unknown
Mission
Decayed spacecraft
Bus & Motor
Unknown
Mass
Unknown
Launch date (UTC)
1999-10-14 (26 years ago)
Launch vehicle
Unknown
Launch site
Taiyaun Space Center, China (TSC)
Object type
Payload
Rocket body
Debris
Shape & HBR
Unknown shape, 0.1 m
Radar Cross Section
Small (<0.1 m²)

Expand to show TLE details & history
Last TLE update: 2 months ago

TLE from 2 months ago
0 CZ-4 DEB
1 26441U 99057KN  25352.75451820  .07407173  28215-5  51914-2 0  9990
2 26441  98.0883  84.6361 0013032 309.2107  50.8019 16.16069767364324
Epoch: 2025-12-18T18:06Z
TLE epoch observation values (Epoch: 2025-12-18T18:06:30.372Z)
Latitude
-0.0001°
Longitude
85.40408°
Altitude
228.005 km
Speed
7.773 km/s
True Right ascension
05h 38m 32s
True Declination
0° 00' 00"
Sunlit
Object was in full shadow at epoch
Visualization orbit readout
Latitude
Unknown
Longitude
Unknown
Altitude
Unknown
Speed
Unknown
Apparent Right ascension
Unknown
Apparent Declination
Unknown
Sunlit
N/A
Visualization observer readout
Local Sidereal Time
12:27:02
Azimuth
Unknown
Elevation
Unknown
Doppler factor
Unknown
Orbital elements
Apogee altitude
235.723 km
Perigee altitude
218.507 km
Semi-major axis
6,605.252 km
Eccentricity
0.0013
Inclination
98.0883°
RAAN
84.6361°
Arg. of periapsis
309.2107°
True anomaly
50.91775°
Mean anomaly
50.8019°
Eccentric anomaly
50.85981°
Mean motion
4.04305 °/min
Orbital period
89.04 mins
BSTAR
0.0051914
Loading maneuver chart data...
Computing Atmospheric mass density...

Documentation

Showing up to 5 results
|